When you browse on this site, cookies collect data to enhance your experience and personalize the content and advertising you see.
Visit our Privacy Policy to learn more. By continuing to use the site, you agree to this use of cookies and data.
  • In Czech Republic
  • List of Countries
  • For 7 days
  • Water Temperature
  • Satellite Maps
  • Weather Map
  • Weather Widgets
  • user-avatar
    Login

    Hourly Weather Sala

    Today, 20 April, Saturday

    Time Temperature Precipitation Wind Pressure Humidity
    00:00 +14°C° 0 mm 2 mps 756 mmHg 84%
    01:00 +14°C° 0 mm 2 mps 756 mmHg 85%
    02:00 +14°C° 0 mm 1 mps 755 mmHg 87%
    03:00 +13°C° 0 mm 1 mps 755 mmHg 88%
    04:00 +13°C° 0 mm 1 mps 755 mmHg 88%
    05:00 +13°C° 0 mm 1 mps 755 mmHg 89%
    06:00 +13°C° 0 mm 2 mps 755 mmHg 89%
    07:00 +15°C° 0 mm 1 mps 755 mmHg 81%
    08:00 +16°C° 0 mm 1 mps 755 mmHg 72%
    09:00 +19°C° 0 mm 1 mps 755 mmHg 63%
    10:00 +19°C° 0 mm 2 mps 755 mmHg 59%
    11:00 +20°C° 0 mm 3 mps 755 mmHg 55%
    12:00 +21°C° 0 mm 4 mps 755 mmHg 50%
    13:00 +21°C° 0 mm 5 mps 754 mmHg 50%
    14:00 +21°C° 0 mm 5 mps 754 mmHg 50%
    15:00 +21°C° 0 mm 5 mps 754 mmHg 49%
    16:00 +20°C° 0 mm 5 mps 754 mmHg 54%
    17:00 +19°C° 0 mm 5 mps 754 mmHg 58%
    18:00 +17°C° 0 mm 5 mps 754 mmHg 62%
    19:00 +17°C° 0 mm 4 mps 754 mmHg 69%
    20:00 +16°C° 0 mm 3 mps 754 mmHg 75%
    21:00 +15°C° 0 mm 1 mps 755 mmHg 81%
    22:00 +14°C° 0 mm 1 mps 755 mmHg 82%
    23:00 +14°C° 0 mm 1 mps 755 mmHg 83%

    Tomorrow, 21 April, Sunday

    Time Temperature Precipitation Wind Pressure Humidity
    00:00 +14°C° 0 mm 1 mps 755 mmHg 85%
    01:00 +14°C° 0 mm 2 mps 754 mmHg 85%
    02:00 +14°C° 0 mm 2 mps 754 mmHg 86%
    03:00 +12°C° 0 mm 3 mps 754 mmHg 87%
    04:00 +12°C° 0 mm 3 mps 753 mmHg 88%
    05:00 +12°C° 0 mm 3 mps 753 mmHg 89%
    06:00 +12°C° 0 mm 4 mps 753 mmHg 90%
    07:00 +14°C° 0 mm 5 mps 753 mmHg 82%
    08:00 +16°C° 0 mm 5 mps 753 mmHg 74%
    09:00 +17°C° 0 mm 6 mps 753 mmHg 67%
    10:00 +19°C° 0.3 mm 6 mps 753 mmHg 64%
    11:00 +20°C° 0.3 mm 6 mps 753 mmHg 62%
    12:00 +21°C° 0.3 mm 6 mps 753 mmHg 59%
    13:00 +21°C° 0.6 mm 6 mps 753 mmHg 62%
    14:00 +21°C° 0.6 mm 6 mps 752 mmHg 65%
    15:00 +20°C° 0.6 mm 6 mps 752 mmHg 67%
    16:00 +20°C° 0.2 mm 6 mps 752 mmHg 70%
    17:00 +19°C° 0.2 mm 5 mps 752 mmHg 72%
    18:00 +17°C° 0.2 mm 5 mps 752 mmHg 75%
    19:00 +17°C° 0 mm 4 mps 752 mmHg 79%
    20:00 +17°C° 0 mm 4 mps 753 mmHg 83%
    21:00 +16°C° 0 mm 3 mps 753 mmHg 88%
    22:00 +16°C° 0 mm 3 mps 753 mmHg 89%
    23:00 +14°C° 0 mm 3 mps 753 mmHg 89%

    Day after tomorrow, 22 April, Monday

    Time Temperature Precipitation Wind Pressure Humidity
    00:00 +14°C° 0 mm 3 mps 753 mmHg 90%
    01:00 +14°C° 0.1 mm 4 mps 753 mmHg 91%
    02:00 +14°C° 0.1 mm 4 mps 752 mmHg 92%
    03:00 +14°C° 0.1 mm 5 mps 752 mmHg 92%
    04:00 +14°C° 0.5 mm 5 mps 752 mmHg 90%
    05:00 +14°C° 0.5 mm 5 mps 752 mmHg 88%
    06:00 +14°C° 0.5 mm 5 mps 752 mmHg 86%
    07:00 +15°C° 0.1 mm 6 mps 752 mmHg 79%
    08:00 +17°C° 0.1 mm 6 mps 752 mmHg 73%
    09:00 +18°C° 0.1 mm 7 mps 753 mmHg 66%
    10:00 +20°C° 0.1 mm 7 mps 753 mmHg 60%
    11:00 +21°C° 0.1 mm 7 mps 753 mmHg 55%
    12:00 +23°C° 0.1 mm 7 mps 753 mmHg 49%
    13:00 +23°C° 0 mm 7 mps 753 mmHg 49%
    14:00 +23°C° 0 mm 7 mps 752 mmHg 49%
    15:00 +22°C° 0 mm 7 mps 752 mmHg 50%
    16:00 +22°C° 0 mm 6 mps 752 mmHg 55%
    17:00 +21°C° 0 mm 5 mps 752 mmHg 61%
    18:00 +20°C° 0 mm 5 mps 751 mmHg 66%
    19:00 +18°C° 0 mm 4 mps 752 mmHg 74%
    20:00 +17°C° 0 mm 4 mps 752 mmHg 81%
    21:00 +16°C° 0 mm 3 mps 753 mmHg 89%
    22:00 +16°C° 0 mm 3 mps 753 mmHg 90%
    23:00 +16°C° 0 mm 3 mps 753 mmHg 91%

    23 April, Tuesday

    Time Temperature Precipitation Wind Pressure Humidity
    00:00 +14°C° 0 mm 3 mps 753 mmHg 92%
    01:00 +14°C° 0 mm 4 mps 752 mmHg 91%
    02:00 +14°C° 0 mm 4 mps 752 mmHg 91%
    03:00 +13°C° 0 mm 4 mps 751 mmHg 91%
    04:00 +13°C° 0 mm 5 mps 751 mmHg 89%
    05:00 +13°C° 0 mm 5 mps 751 mmHg 88%
    06:00 +13°C° 0 mm 5 mps 751 mmHg 87%
    07:00 +15°C° 0.1 mm 6 mps 751 mmHg 78%
    08:00 +16°C° 0.1 mm 7 mps 751 mmHg 70%
    09:00 +18°C° 0.1 mm 7 mps 752 mmHg 62%
    10:00 +17°C° 0.7 mm 7 mps 752 mmHg 69%
    11:00 +16°C° 0.7 mm 7 mps 752 mmHg 77%
    12:00 +15°C° 0.7 mm 6 mps 752 mmHg 84%
    13:00 +15°C° 1 mm 5 mps 752 mmHg 84%
    14:00 +14°C° 1 mm 3 mps 752 mmHg 85%
    15:00 +14°C° 1 mm 2 mps 752 mmHg 85%
    16:00 +14°C° 0.4 mm 2 mps 753 mmHg 83%
    17:00 +14°C° 0.4 mm 2 mps 753 mmHg 81%
    18:00 +15°C° 0.4 mm 2 mps 753 mmHg 79%
    19:00 +14°C° 0 mm 2 mps 754 mmHg 78%
    20:00 +14°C° 0 mm 2 mps 755 mmHg 76%
    21:00 +14°C° 0 mm 2 mps 755 mmHg 74%
    22:00 +14°C° 0 mm 2 mps 755 mmHg 72%
    23:00 +14°C° 0 mm 2 mps 755 mmHg 70%

    24 April, Wednesday

    Time Temperature Precipitation Wind Pressure Humidity
    00:00 +14°C° 0 mm 2 mps 756 mmHg 68%
    01:00 +13°C° 0 mm 2 mps 755 mmHg 69%
    02:00 +13°C° 0 mm 2 mps 755 mmHg 71%
    03:00 +12°C° 0 mm 2 mps 755 mmHg 72%
    04:00 +12°C° 0 mm 2 mps 755 mmHg 74%
    05:00 +12°C° 0 mm 2 mps 756 mmHg 76%
    06:00 +12°C° 0 mm 2 mps 756 mmHg 77%
    07:00 +13°C° 0 mm 2 mps 756 mmHg 71%
    08:00 +15°C° 0 mm 2 mps 757 mmHg 64%
    09:00 +17°C° 0 mm 3 mps 757 mmHg 57%
    10:00 +18°C° 0 mm 3 mps 757 mmHg 53%
    11:00 +19°C° 0 mm 3 mps 757 mmHg 48%
    12:00 +20°C° 0 mm 3 mps 757 mmHg 43%
    13:00 +20°C° 0 mm 3 mps 757 mmHg 43%
    14:00 +20°C° 0 mm 4 mps 757 mmHg 44%
    15:00 +21°C° 0 mm 4 mps 757 mmHg 44%
    16:00 +20°C° 0 mm 4 mps 757 mmHg 48%
    17:00 +19°C° 0 mm 4 mps 757 mmHg 53%
    18:00 +18°C° 0 mm 3 mps 757 mmHg 57%
    19:00 +17°C° 0 mm 2 mps 758 mmHg 62%
    20:00 +16°C° 0 mm 1 mps 759 mmHg 67%
    21:00 +14°C° 0 mm 0 mps 759 mmHg 71%
    22:00 +14°C° 0 mm 1 mps 759 mmHg 73%
    23:00 +14°C° 0 mm 1 mps 760 mmHg 74%

    25 April, Thursday

    Time Temperature Precipitation Wind Pressure Humidity
    00:00 +14°C° 0 mm 1 mps 760 mmHg 75%
    01:00 +14°C° 0 mm 1 mps 759 mmHg 75%
    02:00 +13°C° 0 mm 1 mps 759 mmHg 76%
    03:00 +13°C° 0 mm 2 mps 759 mmHg 77%
    04:00 +13°C° 0 mm 2 mps 760 mmHg 77%
    05:00 +13°C° 0 mm 2 mps 760 mmHg 77%
    06:00 +13°C° 0 mm 2 mps 760 mmHg 77%
    07:00 +15°C° 0 mm 1 mps 760 mmHg 69%
    08:00 +18°C° 0 mm 1 mps 761 mmHg 60%
    09:00 +18°C° 0 mm 0 mps 761 mmHg 51%
    10:00 +22°C° 0 mm 1 mps 761 mmHg 47%
    11:00 +23°C° 0 mm 2 mps 761 mmHg 43%
    12:00 +24°C° 0 mm 3 mps 761 mmHg 38%
    13:00 +23°C° 0 mm 4 mps 761 mmHg 41%
    14:00 +23°C° 0 mm 4 mps 760 mmHg 43%
    15:00 +23°C° 0 mm 5 mps 760 mmHg 45%
    16:00 +22°C° 0 mm 5 mps 760 mmHg 51%
    17:00 +21°C° 0 mm 5 mps 760 mmHg 58%
    18:00 +20°C° 0 mm 5 mps 761 mmHg 65%
    19:00 +19°C° 0 mm 5 mps 761 mmHg 73%
    20:00 +16°C° 0 mm 5 mps 762 mmHg 82%
    21:00 +15°C° 0 mm 4 mps 762 mmHg 90%
    22:00 +15°C° 0 mm 4 mps 762 mmHg 90%
    23:00 +15°C° 0 mm 4 mps 762 mmHg 90%
    Show more